Miscellaneous Local Product
Issued by NWS Hastings, NE

Home | Current Version | Previous Version | Text Only | Print | Product List | Glossary Off
Versions: 1 2 3 4 5 6 7 8 9 10 11 12 13 14 15 16 17 18 19 20 21 22 23 24 25 26 27 28 29 30 31 32 33 34 35 36 37 38 39 40 41 42 43 44 45 46 47 48 49 50

000
AXUS43 KGID 210502
MISGRI

GID CWA HOURLY WEATHER ROUNDUP
NATIONAL WEATHER SERVICE HASTINGS NE
1200 AM CDT TUE OCT 21 2014

NOTE: "FAIR" INDICATES FEW OR NO CLOUDS BELOW 12,000 FEET WITH NO
SIGNIFICANT WEATHER AND/OR OBSTRUCTIONS TO VISIBILITY.

...SOUTH CENTRAL NEBRASKA...

CITY           SKY/WX    TMP DP  RH WIND       PRES   REMARKS
GRAND ISLAND   CLEAR     52  39  61 S8        30.07S
HASTINGS       CLEAR     54  39  57 S3        30.07S
KEARNEY        CLEAR     46  37  71 SE3       30.07S
ORD            CLEAR     43  38  82 CALM      30.04S
YORK           CLEAR     55  37  50 S6        30.07S
AURORA           N/A     51  37  59 SE6       30.06F HAZE
LEXINGTON      CLEAR     53  41  65 SE6       30.06F
HOLDREGE       CLEAR     55  41  59 CALM      30.07S
HEBRON         CLEAR     44  40  86 CALM      30.07F

...NEBRASKA PANHANDLE...

CITY           SKY/WX    TMP DP  RH WIND       PRES   REMARKS
CHADRON        LGT RAIN  64  38  38 S17       29.92F
ALLIANCE       CLEAR     46  38  73 S10       30.01S
SCOTTSBLUFF    CLEAR     62  38  40 SE8       30.00F
SIDNEY         CLEAR     51  40  65 S10       30.07S

...WESTERN AND NORTH CENTRAL NEBRASKA...

CITY           SKY/WX    TMP DP  RH WIND       PRES   REMARKS
VALENTINE      CLEAR     59  39  47 SW13      29.98F
AINSWORTH      CLEAR     55  41  60 S12       30.01S
ONEILL         CLEAR     52  42  70 S6        30.04S
BROKEN BOW     CLEAR     42  38  85 CALM      30.05S
IMPERIAL       CLEAR     56  37  49 S10       30.07S
NORTH PLATTE   CLEAR     55  39  54 S8        30.05S
MCCOOK         CLEAR     55  40  56 S7        30.06F

...EASTERN NEBRASKA...

CITY           SKY/WX    TMP DP  RH WIND       PRES   REMARKS
NORFOLK        CLEAR     44  36  73 CALM      30.05F
SO SIOUX CITY  CLEAR     42  39  89 CALM      30.06F
TEKAMAH        CLEAR     43  38  82 CALM      30.07S
COLUMBUS       CLEAR     45  36  70 CALM      30.07S
ALBION         CLEAR     42  36  81 CALM      30.06S
OMAHA EPPLEY   CLEAR     47  43  86 CALM      30.07F
OFFUTT AFB     CLEAR     41  41 100 CALM      30.06F
MILLARD        CLEAR     46  44  94 CALM      30.06F
LINCOLN        CLEAR     43  37  79 CALM      30.08F
NEBRASKA CITY  CLEAR     57  32  38 S3        30.07F
BEATRICE       CLEAR     43  38  80 CALM      30.08S
FALLS CITY     CLEAR     45  39  79 CALM      30.06F

...NORTHERN KANSAS...

CITY           SKY/WX    TMP DP  RH WIND       PRES   REMARKS
GOODLAND       CLEAR     51  39  63 S12       30.11F
HILL CITY      CLEAR     47  40  76 W5        30.08F
NORTON         CLEAR     55  37  50 S9        30.06F
PHILLIPSBURG   CLEAR     48  43  81 CALM      30.07F
BELOIT         CLEAR     46  45  93 CALM      30.06S
HAYS           CLEAR     52  43  71 CALM      30.09S
RUSSELL        CLEAR     52  44  74 S7        30.07S
CONCORDIA      CLEAR     54  42  64 SE6       30.07S
SALINA         CLEAR     52  47  83 S3        30.07F
TOPEKA         CLEAR     48  44  86 CALM      30.08F



USA.gov is the U.S. government's official web portal to all federal, state and local government web resources and services.